Location: Unspecified
(51.5147°N, 7.4673°E)
Time: 11:38:03
(UTC+01:00)

Vanguard 1 - Pass Details

Date: 26 February 2026
Orbit: 653 x 3818 km, 34.2° (Epoch: 5 March)

Event Time Altitude Azimuth Distance (km) Brightness Sun altitude
Rises 18:51:39 0° 264° (W) 5,230 16.4 -8.0°
Reaches altitude 10° 18:55:19 10° 252° (WSW) 4,655 15.0 -8.6°
Maximum altitude 19:06:05 27° 202° (SSW) 4,431 13.6 -10.2°
Drops below altitude 10° 19:21:25 10° 155° (SSE) 6,678 14.0 -12.6°
Sets 19:28:21 0° 145° (SE) 7,904 14.3 -13.7°
